Location: Rio Negrinho
(26.2394°S, 49.4999°W)
Time: 22:58:07
(UTC+00:00)

ADEOS Rocket - Pass Details

Date: 07 June 2020
Orbit: 859 x 1306 km, 98.7° (Epoch: 10 July)

Event Time Altitude Azimuth Distance (km) Brightness Sun altitude
Rises 08:37:12 0° 159° (SSE) 3,930 6.2 -18.3°
Reaches altitude 10° 08:40:01 10° 153° (SSE) 2,898 5.6 -17.7°
Maximum altitude 08:46:09 44° 82° (E) 1,329 4.2 -16.4°
Drops below altitude 10° 08:51:41 10° 10° (N) 2,610 5.6 -15.2°
Sets 08:54:05 0° 3° (N) 3,503 6.2 -14.7°
